• Join FlightAware (Why Join?)
  • Login
  • US Flag 
03:33AM EDT


 

Airport Tracker/Info


-or-


 

Live Flight TrackerFlight Track Log ✈ LAN930 ✈ 24-Sep-2013 ✈ SCEL / SCL - SAME / MDZ

Flight Track Log - Related Links

Times and Time Zones

All times are in EDT time to prevent confusion due to time zone crossing. See the LAN930 flight status page for this flight to view local times or setup timezone preferences in your user account.

Time Position Orientation Groundspeed Altitude Reporting Facility
EDT Latitude Longitude Course Direction KTS MPH feet Rate Location/Type
07:56AM -33.6390 -70.7400 109° East 316 364 15,400  Level FlightAware
07:56AM -33.6610 -70.6450 106° East 384 442 16,700 2,400 Climbing FlightAware
07:57AM -33.6790 -70.5760 107° East 401 461 18,300 1,920 Climbing FlightAware
07:58AM -33.7080 -70.4650 107° East 412 474 19,600 3,060 Climbing FlightAware
07:59AM -33.7330 -70.3730 108° East 422 486 22,900 4,080 Climbing FlightAware
07:59AM -33.7570 -70.2810 107° East 420 483 25,000 2,820 Climbing FlightAware
08:00AM -33.7660 -70.2220 100° East 426 490 26,100 2,580 Climbing FlightAware
08:00AM -33.7750 -70.1410 98° East 426 490 27,700 1,800 Climbing FlightAware
08:01AM -33.7860 -70.0340 97° East 420 483 28,700 900 Climbing FlightAware
08:02AM -33.7920 -69.9770 97° East 420 483 29,000 240 Climbing FlightAware
08:02AM -33.7990 -69.9060 97° East 420 483 29,000  Level FlightAware
08:03AM -33.8060 -69.8350 97° East 420 483 29,000  Level FlightAware
08:03AM -33.8130 -69.7640 97° East 420 483 29,000  Level FlightAware
08:04AM -33.8210 -69.6910 98° East 420 483 29,000  Level FlightAware
08:05AM -33.8280 -69.6180 97° East 420 483 29,000 -2,040 Level FlightAware
08:07AM -33.7750 -69.5735 35° Northeast  Level Estimated
08:07AM -33.8690 -69.1930 35° Northeast 369 425 22,400  Level FlightAware
08:08AM -33.7460 -69.5492 35° Northeast  Level Estimated
08:08AM -33.8790 -69.0840 96° East 369 425 22,000  Level FlightAware
08:09AM -33.8860 -69.0020 96° East 340 391 21,100 -1,320 Descending FlightAware
08:10AM -33.8930 -68.9290 97° East 337 388 20,200 -780 Descending FlightAware
08:10AM -33.8980 -68.8710 96° East 337 388 20,200  Level FlightAware
08:11AM -33.9040 -68.8060 96° East 337 388 20,200  Level FlightAware
08:12AM -33.9090 -68.7460 96° East 337 388 20,200  Level FlightAware
08:12AM -33.9140 -68.6890 96° East 337 388 20,200  Level FlightAware
08:13AM -33.9190 -68.6300 96° East 337 388 20,200 -4,860 Level FlightAware
08:13AM -33.6110 -68.8360 331° Northwest 13,600 -8,100 Descending FlightAware
08:14AM -33.5680 -68.8310 North 302 348 12,800 -1,320 Descending FlightAware
08:14AM -33.5220 -68.8280 North 291 335 12,100 -720 Descending FlightAware
08:15AM -33.4650 -68.8270 North 279 321 11,800 -1,380 Descending FlightAware
08:16AM -33.4150 -68.8240 North 264 304 10,200 -2,340 Descending FlightAware
08:16AM -33.3870 -68.8220 North 273 314 9,400 -1,800 Descending FlightAware
08:17AM -33.3530 -68.8200 North 273 314 8,800 -1,380 Descending FlightAware
08:17AM -33.3230 -68.8190 North 255 293 8,300 -1,200 Descending FlightAware
08:18AM -33.2900 -68.8170 North 245 282 7,700 -1,320 Descending FlightAware
08:18AM -33.2540 -68.8150 North 241 277 7,000 -1,320 Descending FlightAware
08:18AM -33.2330 -68.8140 North 238 274 6,600 -1,380 Descending FlightAware
08:19AM -33.2050 -68.8120 North 235 270 6,000 -1,200 Descending FlightAware
08:19AM -33.1730 -68.8110 North 227 261 5,500 -840 Descending FlightAware
08:20AM -33.1530 -68.8100 North 214 246 5,300 -720 Descending FlightAware
08:20AM -33.1290 -68.8080 North 202 232 5,000 -720 Descending FlightAware
08:20AM -33.1100 -68.8070 North 191 220 4,800 -360 Descending FlightAware
08:21AM -33.0970 -68.8070 360° North 182 209 4,800  Level FlightAware
08:21AM -33.0780 -68.8060 North 174 200 4,800  Level FlightAware
08:21AM -33.0560 -68.8050 North 174 200 4,800  Level FlightAware
08:22AM -33.0410 -68.8040 North 174 200 4,800  Level FlightAware
08:22AM -33.0240 -68.8030 North 173 199 4,800  Level FlightAware
08:22AM -33.0080 -68.8020 North 173 199 4,800  Level FlightAware
08:23AM -32.9930 -68.8010 North 167 192 4,800 -300 Level FlightAware
08:23AM -32.9770 -68.8000 North 162 186 4,600 -840 Descending FlightAware
08:24AM -32.9580 -68.7990 North 157 181 4,200 -960 Descending FlightAware
08:24AM -32.9440 -68.7980 North 143 165 3,900 -900 Descending FlightAware
08:24AM -32.9320 -68.7970 North 130 150 3,600 -780 Descending FlightAware
08:25AM -32.9200 -68.7960 North 124 143 3,400 -360 Descending FlightAware
08:25AM -32.9010 -68.7940 North 124 143 3,300 -660 Descending FlightAware
08:25AM -32.8880 -68.7940 360° North 129 148 2,800 -1,380 Descending FlightAware
08:26AM -32.8820 -68.7940 360° North 130 150 2,700 -660 Descending FlightAware
08:26AM -32.8610 -68.7930 North 132 152 2,300 -780 Descending FlightAware
08:27AM -32.8480 -68.7930 360° North 132 152 2,000 -660 Descending FlightAware
08:27AM -32.8360 -68.7930 360° North 132 152 1,900 -300 Descending FlightAware
08:27AM -32.8310 -68.7930 360° North 94 108 -11,400 Descending FlightAware